Regional Weather Roundup
Issued by NWS

Home | Current Version | Previous Version | Graphics & Text | Print | Product List | Glossary On
Versions: 1 2 3 4 5 6 7 8 9 10 11 12 13 14 15 16 17 18 19 20 21 22 23 24 25 26 27 28 29 30 31 32 33 34 35 36 37 38 39 40 41 42 43 44 45 46 47 48 49 50
000
ASUS43 KLSX 212157
RWRMO

WEATHER SUMMARY FOR MISSOURI
NATIONAL WEATHER SERVICE SPRINGFIELD MO
500 PM CDT FRI JUL 21 2017

NOTE: "FAIR" INDICATES FEW OR NO CLOUDS BELOW 12,000 FEET WITH NO
       SIGNIFICANT WEATHER AND/OR OBSTRUCTIONS TO VISIBILITY.
       CURRENT SKY AND/OR WEATHER CONDITIONS ARE NOT AVAILABLE FOR
       CHILLICOTHE AND FARMINGTON.

MOZ001>031-035>038-043-044-053-054-212300-
...NORTHERN AND WESTERN MISSOURI...

CITY           SKY/WX    TMP DP  RH WIND       PRES   REMARKS
KANSAS CTY INT FAIR      97  75  49 S18       29.85F HX 109
LEE`S SUMMIT   FAIR      96  76  52 S18G25    29.87F HX 109
ST JOSEPH      FAIR      95  80  61 S12       29.81F HX 114
CHILLICOTHE      N/A     94  78  60 S13       29.85F HX 110

$$
MOZ066>068-077>081-088>096-101>105-212300-
...SOUTHWEST MISSOURI...

CITY           SKY/WX    TMP DP  RH WIND       PRES   REMARKS
SPRINGFIELD    FAIR      96  65  35 SW15      29.96F HX  98
JOPLIN         FAIR      98  69  38 S14       29.93F HX 104
BRANSON        MOSUNNY   93  72  49 SW6       29.99F HX 100

$$
MOZ032>034-039>042-045>050-055>058-069>072-212300-
...CENTRAL MISSOURI...

CITY           SKY/WX    TMP DP  RH WIND       PRES   REMARKS
COLUMBIA       NOT AVBL
JEFFERSON CITY FAIR      97  71  42 S8        29.88F HX 104
ROLLA          FAIR      95  72  47 SW9       29.93F HX 103
SEDALIA        FAIR      97  72  44 SW15G22   29.91F HX 105
WARRENSBURG    FAIR      97  70  41 S14G21    29.88S HX 103

$$
MOZ051-052-059>065-212300-
...EAST CENTRAL MISSOURI...

CITY           SKY/WX    TMP DP  RH WIND       PRES   REMARKS
ST LOUIS INTL  FAIR     103  64  28 W12       29.90F HX 106

$$
MOZ072>076-082>087-097>100-106>115-212300-
...SOUTH CENTRAL AND SOUTHEAST MISSOURI...

CITY           SKY/WX    TMP DP  RH WIND       PRES   REMARKS
CAPE GIRARDEAU FAIR      93  76  57 SW10      29.92F HX 105
POPLAR BLUFF   FAIR      94  77  57 S7        29.93F HX 108
WEST PLAINS    FAIR      93  63  36 SW12G20   29.99F HX  94

$$


USA.gov is the U.S. government's official web portal to all federal, state and local government web resources and services.